Regional Weather Roundup
Issued by NWS

Home | Current Version | Previous Version | Graphics & Text | Print | Product List | Glossary On
Versions: 1 2 3 4 5 6 7 8 9 10 11 12 13 14 15 16 17 18 19 20 21 22 23 24 25 26 27 28 29 30 31 32 33 34 35 36 37 38 39 40 41 42 43 44 45 46 47 48 49 50
224
ASUS43 KLMK 180102
RWRKY
KENTUCKY REGIONAL WEATHER ROUNDUP
NATIONAL WEATHER SERVICE LOUISVILLE KY
800 PM EST SUN DEC 17 2017

NOTE "FAIR" INDICATES FEW OR NO CLOUDS BELOW 12,000 FEET
WITH NO SIGNIFICANT WEATHER AND/OR OBSTRUCTIONS TO VISIBILITY.

KYZ001>023-026-027-061>063-070>075-180200-
WESTERN AND SOUTH CENTRAL KENTUCKY

CITY           SKY/WX    TMP DP  RH WIND       PRES   REMARKS
PADUCAH        CLOUDY    46  41  82 S3        30.11S
HENDERSON      CLOUDY    43  42  97 S7        30.14R FOG
OWENSBORO      CLOUDY    42  41  96 SW3       30.15R FOG
HOPKINSVILLE   CLOUDY    44  44 100 S3        30.13R FOG
BOWLING GREEN  CLOUDY    44  44 100 SE3       30.15R FOG
GLASGOW        NOT AVBL
$$

KYZ024-025-028>034-038-045-046-053-180200-
NORTH CENTRAL KENTUCKY

CITY           SKY/WX    TMP DP  RH WIND       PRES   REMARKS
LOUISVILLE/SDF CLOUDY    44  40  85 S6        30.14R
LOUISVILLE/LOU CLOUDY    43  41  93 S7        30.14R
FORT KNOX      CLOUDY    41  41  99 CALM      30.12R
$$

KYZ035>037-039>044-047>052-055>060-089>105-180200-
NORTHEAST KENTUCKY

CITY           SKY/WX    TMP DP  RH WIND       PRES   REMARKS
LEXINGTON      CLOUDY    41  38  89 S7        30.13F FOG
COVINGTON      CLOUDY    43  34  70 S10       30.09S
FRANKFORT      CLOUDY    41  38  89 SE6       30.12S
$$

KYZ054-064>069-076>088-106>120-180200-
SOUTHEAST KENTUCKY

CITY           SKY/WX    TMP DP  RH WIND       PRES   REMARKS
JACKSON        CLOUDY    39  37  92 CALM      30.14R
LONDON         CLOUDY    42  36  79 CALM      30.14R
SOMERSET       NOT AVBL
MIDDLESBORO    CLOUDY    42  38  85 S10       30.17R
MONTICELLO     CLOUDY    43  38  82 NE8       30.17R
$$





USA.gov is the U.S. government's official web portal to all federal, state and local government web resources and services.